#timestamp,LO_Frequency,Hit 
1500746415.1,286047031.3,N
1500746435.9,286047030.5,N
1500746455.7,286047033.1,N
1500746475.5,286047032.4,N
1500746495.4,286047034.6,N
1500746515.2,286047031.9,N
1500746535.1,286047032.1,N
1500746536.0,286047032.1,N
1500746555.8,286047032.3,N
1500746575.6,286047031.7,N
1500746595.5,286047034.8,N
1500746615.3,286047032.5,N
1500746635.1,286047032.7,N
1500746655.9,286047032.5,N
1500746675.7,286047034.2,N
1500746695.6,286047033.9,N
1500746715.4,286047032.3,N
1500746735.2,286047032.0,N
1500746755.1,286047032.8,N
1500746756.0,286047032.8,N
1500746775.8,286047032.3,N
1500746795.7,286047032.6,N
1500746815.5,286047033.2,N
1500746835.3,286047031.9,N
1500746855.2,286047032.2,N
1500746875.0,286047032.3,N
1500746875.9,286047032.3,N
1500746895.7,286047030.3,N
1500746915.6,286047033.2,N
1500746935.4,286047030.6,N
1500746955.3,286047032.7,N
1500746975.1,286047034.7,N
1500746995.8,286047032.9,N
1500747015.7,286047030.7,N
1500747035.5,286047030.8,N
1500747055.4,286047030.8,N
1500747075.2,286047028.9,N
1500747095.0,286047030.5,N
1500747095.9,286047030.5,N
1500747115.8,286047030.2,N
1500747135.6,286047031.3,N
1500747155.5,286047030.4,N
1500747175.3,286047032.8,N
1500747195.1,286047030.5,N
1500747215.9,286047032.8,N
1500747235.7,286047032.3,N
1500747255.5,286047034.7,N
1500747275.4,286047033.0,N
1500747295.2,286047033.2,N
1500747315.1,286047034.3,N
1500747316.0,286047034.3,N
1500747335.8,286047031.8,N
1500747355.6,286047033.0,N
1500747375.5,286047032.2,N
1500747395.3,286047032.5,N
1500747415.1,286047031.8,N
1500747435.9,286047032.3,N
1500747455.7,286047034.4,N
1500747475.6,286047032.3,N
1500747495.4,286047030.1,N
1500747515.2,286047032.0,N
1500747535.1,286047034.4,N
1500747536.0,286047034.4,N
1500747555.8,286047033.1,N
1500747575.6,286047034.4,N
1500747595.5,286047032.2,N
1500747615.3,286047033.0,N
1500747635.2,286047034.1,N
1500747655.9,286047034.4,N
1500747675.7,286047032.1,N
1500747695.6,286047031.8,N
1500747715.4,286047032.4,N
1500747735.2,286047032.0,N
1500747755.1,286047034.8,N
1500747756.0,286047034.8,N
1500747775.8,286047034.2,N
1500747795.7,286047034.3,N
1500747815.5,286047033.9,N
1500747865.4,286047033.8,Y
1500747875.3,286047020.4,N
1500747895.1,286046998.2,N
1500747915.9,286047001.1,N
1500747935.7,286046999.0,N
1500747955.5,286046999.3,N
1500747975.4,286046998.7,N
1500747995.2,286046999.1,N
1500748015.1,286047001.1,N
1500748016.0,286047001.1,N
1500748035.8,286046998.7,N
1500748055.6,286046999.3,N
1500748075.5,286047000.3,N
1500748095.3,286047002.7,N
1500748115.2,286047000.8,N
1500748135.9,286046998.6,N
1500748155.7,286046998.6,N
1500748175.6,286046998.3,N
1500748195.4,286047002.5,N
1500748215.3,286047002.1,N
1500748235.1,286047002.7,N
1500748236.0,286047002.7,N
1500748255.8,286047002.1,N
1500748275.7,286047001.8,N
1500748295.5,286047002.1,N
1500748315.3,286047002.7,N
1500748335.2,286047002.7,N
1500748355.0,286047001.0,N
1500748355.9,286047001.0,N
1500748375.8,286047001.2,N
1500748395.6,286047002.6,N
1500748415.4,286047001.8,N
1500748435.3,286047001.3,N
1500748455.1,286046999.8,N
1500748475.9,286047002.4,N
1500748495.7,286046999.8,N
1500748515.5,286047001.5,N
1500748535.4,286047001.8,N
1500748555.2,286047002.6,N
1500748575.1,286047001.6,N
1500748576.0,286047001.6,N
1500748595.8,286047003.6,N
1500748615.6,286047001.4,N
1500748635.5,286047003.8,N
1500748655.3,286047001.9,N
1500748675.1,286047002.5,N
1500748695.9,286047001.4,N
1500748715.7,286047002.2,N
1500748735.6,286046999.7,N
1500748755.4,286047000.0,N
1500748775.2,286047002.3,N
1500748795.1,286046999.7,N
1500748796.0,286046999.7,N
1500748815.8,286047004.0,N
1500748835.7,286047001.5,N
1500748855.5,286047001.7,N
1500748875.3,286047002.7,N
1500748895.2,286047000.1,N
1500748915.0,286047001.5,N
1500748915.9,286047001.5,N
1500748935.7,286047003.6,N
1500748955.6,286047001.4,N
1500748975.4,286047002.5,N
1500748995.3,286047004.2,N
1500749015.1,286047001.4,N
1500749035.8,286047005.9,N
1500749055.7,286047001.3,N
1500749075.5,286047002.7,N
1500749095.4,286047001.6,N
1500749115.2,286047001.5,N
1500749135.0,286047004.0,N
1500749135.9,286047004.0,N
1500749155.8,286047003.1,N
1500749175.6,286047003.0,N
1500749195.4,286047004.1,N
1500749215.3,286047003.7,N
1500749235.1,286047004.1,N
1500749255.9,286047004.3,N
1500749275.7,286047003.3,N
1500749295.5,286047004.3,N
1500749315.4,286047004.1,N
1500749335.2,286047004.2,N
1500749355.0,286047002.9,N
1500749355.9,286047002.9,N
1500749375.8,286047002.5,N
1500749395.6,286047002.2,N
1500749415.5,286047001.4,N
1500749435.3,286047002.3,N
1500749455.1,286047004.1,N
1500749475.9,286047001.4,N
1500749495.7,286047001.4,N
1500749515.6,286047001.8,N
1500749535.4,286047002.2,N
1500749555.2,286047002.6,N
1500749575.1,286047002.3,N
1500749576.0,286047002.3,N
1500749595.8,286047001.9,N
1500749615.6,286047002.5,N
1500749635.5,286047002.0,N
1500749655.3,286047002.2,N
1500749675.2,286047001.7,N
1500749695.9,286047004.2,N
1500749715.7,286047001.4,N
1500749735.6,286047004.0,N
1500749755.4,286047004.3,N
1500749775.2,286047003.3,N
1500749795.1,286047001.9,N
1500749796.0,286047001.9,N
1500749815.8,286047001.9,N
1500749835.7,286047001.3,N
1500749855.5,286047004.1,N
1500749875.3,286047003.7,N
1500749895.2,286047004.3,N
1500749915.0,286047003.4,N
1500749915.9,286047003.4,N
1500749935.8,286047003.5,N
1500749955.6,286047003.8,N
1500749975.4,286047004.4,N
1500749995.3,286047006.0,N
